STARLINK-6247, 57086

Orbit data source: Space-Track

STARLINK-6247, 57086 is a payload satellite owned by SpaceX/Seattle (US) in LEO that was launched on Thu, 22 Jun 2023 UTC via an FALCON 9 launch vehicle from the Air Force Western Test Range (AFWTR). Payload-class satellites include a variety of spacecraft equipped with specific instruments for various scientific and technological missions. These include communications satellites like Starlink; space stations such as the ISS; scientific satellites like the Hubble; Earth observation satellites from companies like Planet Labs, Umbra, and HawkEye 360; GPS; miniature CubeSats for education and research; and military/defense satellites.

Loading next visibility...
Identifier
57086, 2023-088AQ
Orbit
LEO
Country
Flag of USUS
Related business
Manufacturer
SpaceX/Seattle
Mission
Operational Commercial Communications
Bus & Motor
STARLINK, Unknown motor
Mass
305 kg wet, ~290 kg dry
Launch date (UTC)
Icon of a cake. It is the launch day of the satellite!2023-06-22 (3 years ago)
Launch vehicle
FALCON 9
Launch site
Air Force Western Test Range (AFWTR)
Object type
Payload
Rocket body
Debris
Shape & HBR
Box + 1 Pan, 10.1 m
Radar Cross Section
11.087 m², Large (>1 m²)

Expand to show TLE details & history
Last TLE update: 2 days ago

TLE from 2 days ago
0 STARLINK-6247
1 57086U 23088AQ  26171.22993288 -.00000099  00000-0  59194-5 0  9999
2 57086  43.0033 236.9417 0001341 292.3435  67.7274 15.27577317166180
Epoch: 2026-06-20T05:31Z
TLE epoch observation values (Epoch: 2026-06-20T05:31:06.200Z)
Latitude
-0.00007°
Longitude
-114.28175°
Altitude
482.484 km
Speed
7.626 km/s
True Right ascension
15h 47m 45s
True Declination
0° 00' 00"
Sunlit
Object was in full shadow at epoch
Visualization orbit readout
Latitude
Unknown
Longitude
Unknown
Altitude
Unknown
Speed
Unknown
Apparent Right ascension
Unknown
Apparent Declination
Unknown
Sunlit
N/A
Visualization observer readout
Local Sidereal Time
00:39:38
Azimuth
Unknown
Elevation
Unknown
Doppler factor
Unknown
Orbital elements
Apogee altitude
485.922 km
Perigee altitude
484.081 km
Semi-major axis
6,863.139 km
Eccentricity
0.00013
Inclination
43.0033°
RAAN
236.9417°
Arg. of periapsis
292.3435°
True anomaly
67.74162°
Mean anomaly
67.7274°
Eccentric anomaly
67.73451°
Mean motion
3.81732 °/min
Orbital period
94.31 mins
BSTAR
0.0000059194
Loading maneuver chart data...
Computing Atmospheric mass density...
Loading historical data...
Loading historical data...
Loading historical data...
Loading historical data...
Loading historical data...
Loading historical data...
Loading historical data...

Documentation

Showing up to 5 results
|